Matala Airport

Jump to: basic info | weather | runways | comments

Related pages: nearby airports | nearby navaids | notams | map

Basic information (top)

Codes: FN18
Location: lon -14.727500, lat 15.014000, elev 4,120 ft / 1,256 m msl
Status: small_airport

Weather (top)

Current conditions for Lubango Airport 84nm (156km) W (rec'd 2014/09/22 06:00Z):

FNUB 220600Z 21008KT 9999 SCT040 19/06 Q1024

Airport forecast for Lubango Airport 84nm (156km) W (rec'd 2014/09/21 12:00Z):

TAF FNUB 211100Z 2112/2124 26010KT CAVOK 
      TEMPO 2116/2122 15005KT SCT025 
      BECMG 2118/2120 VRB03KT

Runways (top)

10/28: 8,015 x 98 ft (2,443 x 30 m) — paved — not lighted

Latest comments (top)

No comments yet for Matala Airport

More... (top)

See also NOTAMs and nearby airports and navaids, or visit the Matala Airport page at the main OurAirports website..